RH
17 19 29 68 100 100 100 96 71 73 68 94 90 97 57 62 64 52 54 48 50 77 96 100 100 91 100 72 65 70 71 57 44 37 31 26 24 23 21 20 18 18 21 23 23 22 23 25 23
15 16 19 32 60 100 100 100 92 83 83 78 66 80 94 72 62 72 68 71 63 59 71 100 100 100 95 76 79 98 83 63 57 50 42 32 27 22 18 17 15 17 22 25 25 25 26 23 22
13 15 15 17 27 90 99 100 100 100 84 87 52 70 91 99 79 64 71 83 84 74 75 82 91 100 96 89 100 100 90 84 76 58 43 29 23 20 17 16 18 23 30 26 23 20 19 28 28
14 14 13 14 16 22 59 100 97 100 99 80 78 59 70 100 100 78 71 76 76 86 88 100 98 95 91 100 100 100 100 84 83 57 38 24 22 19 16 16 20 26 27 23 27 22 21 18 17
12 14 14 14 18 17 18 70 80 100 100 100 87 85 71 77 99 100 83 82 83 89 89 93 100 99 96 100 100 100 100 93 76 44 32 26 22 19 16 16 17 20 22 26 22 19 16 15 15
12 12 13 16 17 16 16 16 77 100 100 100 100 85 99 78 73 88 100 98 94 97 92 94 100 100 100 100 100 100 100 99 77 55 47 33 26 22 20 19 17 16 22 26 20 15 15 19 24
11 13 12 15 16 16 16 16 17 99 100 100 100 99 100 86 64 67 77 100 100 100 100 87 80 72 85 100 100 100 100 98 79 68 48 33 24 19 18 18 22 25 25 18 15 16 21 29 40
17 12 13 14 17 16 16 18 15 16 32 62 97 92 100 94 78 67 87 74 71 92 100 100 100 96 92 88 100 100 98 94 66 41 30 22 23 20 22 26 35 26 18 14 16 25 47 54 54
20 19 19 15 14 16 12 15 16 16 29 91 100 93 91 98 100 99 100 100 90 81 74 90 100 100 97 100 99 99 100 96 63 41 28 26 24 21 29 29 24 16 15 20 29 42 56 56 41
21 23 24 21 14 13 10 12 15 18 15 29 86 100 100 89 100 100 98 99 93 69 76 71 76 93 100 94 86 89 89 69 41 30 29 26 22 29 35 24 15 16 20 32 52 64 49 33 26
24 27 25 25 21 16 12 12 14 20 18 16 34 89 100 100 100 100 100 86 82 100 83 68 65 76 80 75 76 75 63 51 40 33 41 40 31 35 33 16 16 20 36 59 62 47 33 25 23
26 24 27 28 24 21 16 12 14 18 28 16 17 25 83 100 100 100 96 93 93 89 90 88 77 74 79 84 69 58 51 43 53 67 77 52 35 39 20 17 22 45 64 58 47 37 25 23 20
28 24 24 30 24 24 21 15 15 18 24 18 18 20 44 94 98 100 93 78 81 80 75 80 75 72 64 61 67 59 46 44 48 75 87 66 41 30 16 24 37 59 55 48 34 26 24 26 22
34 30 25 26 30 25 23 21 14 17 21 18 17 19 24 61 100 100 94 80 91 80 85 81 76 72 66 61 60 54 57 64 99 100 87 51 40 19 21 36 61 59 52 32 25 23 24 27 23
45 36 29 24 28 29 23 20 17 20 18 19 18 17 22 32 44 100 100 97 90 87 74 69 59 62 65 59 83 99 74 84 91 88 67 44 36 19 34 58 74 62 40 31 24 23 24 25 27
50 45 36 32 28 30 24 27 25 27 15 18 19 17 18 22 25 78 100 99 94 89 88 67 61 78 70 78 100 82 70 72 78 65 55 36 21 24 51 76 80 69 52 39 29 26 31 31 30
57 65 50 45 39 32 26 40 33 32 18 17 21 16 19 23 28 41 96 100 99 88 95 80 61 86 91 100 94 65 88 90 70 63 34 20 23 49 77 88 83 69 60 52 42 36 38 39 39
75 62 47 43 43 32 27 35 42 33 22 18 19 19 22 26 26 27 72 86 100 100 100 87 89 96 100 100 99 100 90 78 65 32 18 21 48 71 78 79 78 70 74 63 50 46 47 50 48
62 63 54 46 50 38 38 32 39 36 27 23 22 20 18 30 26 24 32 40 53 100 100 99 97 100 100 100 100 100 70 61 24 18 22 31 53 86 67 68 68 62 46 38 36 30 26 26 24
63 69 64 55 60 52 41 40 33 44 33 27 25 23 19 28 32 26 24 24 35 56 99 99 100 100 100 99 84 62 27 19 18 23 28 28 30 35 45 46 40 33 20 15 15 15 14 14 14
84 84 76 63 60 46 47 37 31 42 38 26 30 26 24 32 32 27 29 30 33 56 71 100 96 86 70 42 24 21 20 22 24 23 22 21 19 19 18 17 16 17 17 17 18 18 19 19 17
91 98 86 75 73 60 47 41 32 40 40 27 33 24 36 46 33 24 41 31 50 87 97 83 70 42 26 24 22 22 20 20 20 21 21 19 18 18 19 19 20 20 19 18 18 19 20 20 18
85 80 82 81 73 62 47 34 36 44 40 34 34 27 39 55 40 26 51 56 89 100 83 49 34 26 24 25 25 23 20 22 24 24 23 20 21 23 24 22 22 20 18 18 19 18 16 15 14
58 71 72 79 80 47 59 30 42 35 43 36 32 29 46 59 46 26 54 71 99 94 60 38 27 25 24 27 26 26 24 26 28 27 25 27 27 25 23 24 22 20 19 18 19 18 16 14 14
22 31 33 37 33 18 51 21 40 46 41 34 30 33 53 51 48 29 52 84 97 73 48 35 29 29 29 31 29 27 31 31 31 30 31 30 26 25 25 23 22 21 20 19 19 18 17 17 14
6 8 10 12 14 23 42 17 50 52 32 30 30 38 48 44 46 25 74 100 80 59 37 31 33 32 32 32 33 33 33 33 32 34 33 31 28 28 26 25 24 21 20 18 18 19 18 16 14
6 5 11 8 11 27 38 31 95 56 27 29 29 48 53 51 47 28 97 88 56 39 34 30 31 34 36 35 32 31 29 33 37 35 32 28 28 29 29 24 22 20 19 20 21 18 16 16 16
4 4 4 6 12 21 34 33 76 26 28 30 34 65 50 49 43 49 97 69 47 36 35 34 32 37 40 36 38 37 36 38 37 34 28 28 30 32 28 26 21 20 22 24 21 18 17 18 20
4 6 8 9 17 35 26 39 37 30 33 36 44 69 48 39 43 67 85 54 42 39 36 38 40 42 43 41 42 42 42 39 35 31 30 34 35 34 28 22 21 25 28 24 20 19 22 23 28
13 7 19 23 28 50 62 50 28 34 32 33 49 52 42 40 45 88 80 54 46 41 42 45 46 46 49 48 49 50 46 40 36 34 37 38 37 30 25 22 28 31 26 21 22 25 33 40 38
Wind_Speed
56 60 63 66 69 73 77 74 69 66 65 66 62 58 57 55 53 52 51 51 51 47 45 43 44 43 37 38 39 41 40 36 33 32 35 37 39 42 44 48 52 55 55 57 58 60 61 62 62
55 56 59 65 72 75 71 72 76 72 72 71 67 61 60 57 56 56 55 53 54 53 51 48 47 47 44 45 44 41 38 32 35 37 41 43 45 46 50 54 58 60 59 58 60 61 64 67 66
54 57 58 60 65 72 73 74 70 76 76 75 71 65 62 63 59 58 57 56 55 56 55 54 49 52 51 49 45 44 40 39 39 42 44 45 45 50 54 55 58 61 60 62 65 66 71 69 68
59 57 58 58 61 67 71 74 74 75 78 81 75 71 68 65 65 62 61 61 57 56 55 53 54 53 50 48 49 46 42 42 39 39 42 42 47 53 56 58 59 61 63 62 67 69 68 69 70
63 61 58 59 62 61 64 72 73 77 78 81 82 76 72 67 64 69 64 63 62 60 58 56 51 50 49 48 53 48 46 44 42 41 44 48 52 56 58 60 61 61 63 70 72 72 73 68 64
65 67 64 64 67 62 61 63 74 78 77 83 82 79 77 72 69 66 71 66 65 62 60 59 56 54 53 46 48 54 56 50 45 47 50 53 54 57 64 66 66 66 70 71 73 68 61 57 55
61 66 68 70 70 64 60 63 70 79 78 79 86 84 81 77 75 72 67 70 70 67 65 61 58 55 55 51 52 57 56 50 52 52 53 57 62 62 66 67 70 70 73 69 63 61 55 52 51
60 57 66 71 76 73 66 65 67 71 78 81 83 81 84 79 75 74 70 68 65 64 63 65 64 60 60 56 52 52 53 52 52 55 60 64 65 65 63 63 67 68 66 63 59 51 48 50 51
54 54 63 72 77 82 72 69 65 67 72 79 80 81 84 80 77 77 73 69 70 67 63 62 54 62 48 55 52 54 57 58 60 65 63 62 62 61 62 68 67 63 62 56 49 46 48 51 52
51 50 58 70 75 80 74 68 67 69 69 76 78 76 82 79 78 81 80 74 71 68 63 61 58 49 48 50 54 56 59 63 64 64 61 59 59 62 67 66 63 60 55 47 46 46 49 52 52
49 49 59 64 71 76 77 73 71 70 72 68 74 75 77 79 81 81 80 76 72 70 69 65 61 58 57 52 54 60 65 66 67 64 63 64 64 65 68 63 61 54 45 45 46 49 49 48 48
50 55 60 66 67 71 75 74 74 74 75 71 68 70 73 74 75 80 79 77 76 76 73 71 65 60 60 61 63 65 66 67 63 62 64 67 67 70 64 59 53 45 43 46 48 50 50 48 47
47 53 61 70 68 68 73 73 75 76 78 72 68 64 66 69 76 78 79 78 79 77 73 74 71 69 69 69 68 69 71 64 62 62 65 68 67 66 60 54 44 43 45 47 49 49 47 47 47
46 45 54 65 72 71 71 72 74 78 82 75 70 64 61 62 62 69 78 82 76 77 74 72 71 69 68 70 67 70 64 62 61 63 66 71 66 61 56 47 45 46 47 48 46 45 45 46 46
46 45 50 59 71 74 74 68 70 81 84 79 72 69 59 57 58 61 64 70 75 74 76 75 71 69 72 72 66 61 63 63 69 67 72 69 65 59 50 46 46 45 44 45 45 44 43 44 45
47 48 49 51 61 74 75 64 70 78 82 79 76 70 64 56 57 55 54 59 69 73 74 76 72 67 67 69 68 69 69 71 66 66 64 62 58 53 47 45 44 45 44 44 45 45 43 43 44
51 51 50 51 57 67 78 70 72 73 80 80 79 73 65 57 56 55 51 48 54 67 73 72 71 68 68 66 69 70 70 66 65 62 54 54 55 47 45 46 45 47 47 46 45 45 46 47 47
60 56 56 55 62 65 72 71 76 75 78 81 79 75 64 60 58 53 50 47 46 46 55 63 68 70 68 67 69 64 63 57 55 49 49 51 49 46 46 46 44 48 47 48 49 49 49 51 54
65 62 56 58 61 65 63 69 75 77 75 77 77 75 67 62 57 52 46 44 44 38 40 45 51 55 55 57 54 54 48 48 45 47 46 47 47 47 47 47 47 48 47 48 50 51 51 51 53
69 67 57 63 66 67 67 64 74 77 76 76 77 74 69 63 57 49 45 41 39 39 38 40 43 44 42 40 41 41 41 43 45 44 40 41 41 41 43 45 47 48 47 47 48 49 51 51 52
74 73 65 65 72 67 70 68 74 76 80 75 74 73 68 63 58 47 42 40 37 38 41 41 40 36 35 35 35 37 42 42 41 40 40 40 40 40 40 40 42 43 43 45 48 50 54 55 55
81 79 75 76 76 70 74 67 74 78 81 75 75 75 68 62 57 49 42 40 38 38 37 35 34 32 34 34 37 40 41 40 39 38 39 41 41 40 41 43 45 47 49 51 52 55 58 61 64
87 89 85 84 83 81 73 72 69 76 79 74 74 75 66 61 55 48 40 40 39 37 35 35 36 34 34 33 35 37 38 38 40 40 42 44 44 43 44 46 50 52 55 57 59 61 63 66 69
91 93 92 90 89 78 69 66 63 77 76 78 76 75 67 61 55 50 42 42 41 39 38 40 39 38 37 36 39 39 41 41 43 45 45 45 46 47 48 50 53 57 61 64 66 68 71 74 76
83 86 88 90 81 39 71 63 50 72 81 81 76 77 69 62 55 49 44 44 42 42 42 44 42 40 40 40 40 43 42 43 45 48 48 48 50 52 55 58 61 64 67 70 73 76 79 83 86
63 65 67 66 50 53 73 51 46 70 85 82 76 77 70 61 56 48 43 44 44 45 46 47 45 44 44 42 43 44 45 47 49 51 51 53 55 59 62 64 68 71 74 77 80 84 88 92 92
43 45 56 51 58 66 63 46 65 78 82 81 74 73 66 61 55 49 44 47 47 47 48 48 48 46 46 46 47 48 52 52 52 52 55 57 60 64 68 71 75 77 80 83 86 91 95 97 96
30 32 35 39 47 49 47 64 70 80 79 76 73 73 67 61 54 49 49 50 48 49 50 48 50 49 49 49 50 51 52 54 55 55 59 62 65 70 74 79 82 84 87 90 94 99 99 97 95
21 23 29 42 54 52 53 60 75 73 82 77 77 72 65 59 54 51 50 51 50 51 50 50 52 52 50 51 52 54 56 57 58 61 64 67 72 77 81 84 88 91 93 97 101 101 97 95 97
17 26 39 48 47 48 53 66 69 75 77 76 76 70 63 57 53 52 51 52 51 51 51 53 54 52 52 53 55 58 59 61 64 67 70 73 79 83 87 90 94 96 100 104 102 97 96 98 99
Wind_Direction
246 244 242 235 232 232 235 235 235 238 242 241 240 238 237 238 240 242 243 246 250 251 253 254 264 270 268 280 285 287 285 280 279 281 283 284 284 285 287 288 290 288 283 283 282 282 282 282 282
245 244 244 239 237 231 232 235 235 236 239 240 238 238 238 235 237 237 241 244 248 251 254 257 260 265 267 276 281 280 272 274 278 279 289 288 288 291 293 292 292 288 282 281 282 282 284 281 280
249 247 245 242 238 234 235 234 233 235 236 241 238 236 240 237 236 238 239 240 244 249 253 254 256 259 264 274 276 272 268 272 284 288 290 290 291 295 295 292 289 284 281 280 283 287 284 285 283
248 246 242 243 243 237 234 231 233 235 235 239 240 240 237 243 241 239 238 240 243 246 250 252 254 252 260 266 271 269 271 275 282 282 285 287 290 294 292 291 288 281 279 287 290 289 288 286 284
246 246 247 246 245 243 237 233 234 235 235 238 241 241 238 239 243 245 239 241 244 246 248 250 251 253 258 262 266 266 273 279 281 280 281 287 291 293 293 292 290 286 290 290 292 290 289 285 281
246 244 243 243 243 242 241 237 232 232 233 235 237 237 239 238 241 244 243 242 244 247 249 251 252 253 254 256 255 265 270 276 281 284 285 288 290 292 291 290 292 289 292 295 294 290 287 281 278
248 243 239 241 242 243 239 239 236 232 233 235 236 235 241 239 240 243 246 245 246 250 252 254 254 256 257 254 260 264 268 275 278 284 286 289 292 296 296 293 290 292 295 295 291 289 283 279 275
248 245 241 238 239 239 238 238 239 237 234 235 236 236 238 240 241 243 246 249 249 251 255 260 258 256 258 260 264 265 271 276 283 288 293 293 292 295 296 297 298 298 295 291 290 283 279 279 277
251 247 243 239 238 238 237 237 240 241 236 235 238 237 235 239 242 243 242 243 247 250 253 254 260 266 268 260 265 269 271 277 286 290 293 291 294 294 298 301 298 296 292 290 283 280 280 281 280
253 248 247 242 240 240 240 238 239 240 239 237 239 237 236 238 241 243 242 241 246 250 251 254 254 259 258 257 262 268 273 279 286 290 292 294 295 300 301 299 296 293 291 286 283 283 284 285 283
257 251 248 247 241 241 239 234 235 238 240 241 239 239 237 240 239 240 243 242 245 247 251 253 253 254 257 260 265 272 275 280 287 288 290 294 299 301 300 297 295 291 283 281 284 286 285 285 285
260 255 248 248 243 240 239 233 231 234 239 237 240 239 239 241 244 244 244 244 246 248 250 251 252 256 259 265 270 275 278 282 286 286 289 294 299 300 297 297 294 284 283 284 286 288 287 286 285
263 258 247 243 243 241 239 234 227 231 236 236 237 240 237 241 243 245 245 245 246 248 252 255 256 258 261 266 272 274 278 283 284 286 289 296 297 297 297 296 288 282 284 286 289 289 287 288 287
267 270 251 242 240 240 238 234 231 228 233 236 235 236 237 239 245 246 247 245 248 248 251 254 257 260 262 265 272 274 278 282 282 284 288 294 294 294 295 291 285 284 289 289 289 290 288 290 289
274 276 263 244 239 238 237 234 230 229 228 233 235 234 236 236 241 244 246 245 246 249 251 254 257 260 263 268 272 274 280 281 282 285 289 291 293 294 292 287 288 293 293 292 292 290 291 290 291
275 282 279 253 242 237 236 231 231 231 228 229 234 234 234 238 239 243 244 248 247 248 251 253 257 262 264 267 269 273 278 279 280 283 285 288 291 293 289 288 292 295 295 294 293 293 292 291 289
278 280 266 251 245 237 232 226 231 231 229 227 229 232 233 236 239 242 241 244 246 249 250 253 257 261 263 263 267 272 275 275 278 278 283 285 290 291 291 290 292 292 293 294 295 294 294 293 293
270 272 265 247 248 239 234 225 228 230 229 226 227 230 231 234 237 240 241 242 241 246 250 253 256 258 258 261 264 268 270 268 272 278 283 287 290 288 288 290 293 293 292 292 292 292 291 292 292
273 278 271 246 240 241 235 228 228 229 228 225 225 228 229 233 235 237 239 241 243 244 248 249 251 250 253 255 257 260 261 269 271 280 283 288 285 284 287 286 286 287 290 289 290 290 289 289 289
274 278 268 245 243 241 235 227 223 226 226 223 222 224 226 230 234 234 238 239 240 242 244 247 246 246 249 252 256 260 265 270 277 277 280 284 285 286 285 284 285 286 289 291 292 292 292 291 291
275 277 264 251 247 243 238 224 221 223 224 221 219 220 224 228 232 231 237 239 240 242 246 246 242 246 248 251 256 263 269 270 269 274 276 277 278 282 284 286 288 290 291 292 294 295 295 296 294
275 270 260 254 251 248 241 231 220 221 221 219 217 217 218 224 228 227 230 238 240 242 240 239 241 243 248 252 258 260 263 265 269 269 272 275 279 281 284 290 293 294 295 296 298 299 300 299 297
273 266 261 257 255 252 250 233 226 219 218 217 215 215 214 221 225 224 226 234 237 235 235 238 240 240 244 249 255 258 262 264 267 272 275 278 282 286 291 293 294 296 296 297 299 298 298 299 299
266 261 259 256 253 250 252 239 223 222 215 214 213 212 210 217 220 220 222 229 231 232 232 236 238 241 246 249 253 259 262 268 273 276 279 283 285 288 290 293 296 295 295 296 299 300 301 301 300
261 257 254 252 252 247 246 236 215 225 212 211 210 208 207 212 217 217 220 225 228 229 231 236 241 243 249 254 258 261 266 272 276 280 281 284 287 291 294 296 299 299 299 299 300 301 302 303 303
253 249 244 238 228 223 232 212 204 218 210 208 206 205 206 210 215 216 218 224 226 228 232 237 242 246 252 256 261 265 270 273 276 279 281 285 290 293 296 299 300 300 300 301 303 303 304 304 303
244 239 236 228 212 213 221 192 196 209 204 203 203 201 204 209 213 214 217 224 225 229 234 238 244 249 254 258 264 267 270 274 276 278 281 287 290 294 297 299 300 301 302 303 304 305 305 304 303
234 227 223 206 205 201 193 192 190 202 198 198 198 199 203 207 211 214 216 222 226 231 236 241 247 252 257 261 265 270 273 274 277 280 284 289 293 296 297 300 302 304 305 305 306 306 305 304 303
201 198 194 193 186 181 185 186 195 190 191 192 193 198 201 206 209 214 216 221 227 233 238 245 251 256 261 263 268 271 273 276 279 284 287 292 294 296 299 301 304 305 306 305 306 306 305 304 304
154 170 169 174 166 167 175 179 187 186 189 191 191 197 200 206 209 216 218 223 228 235 241 249 254 259 262 266 269 271 274 278 283 285 290 294 295 298 302 304 305 306 306 306 306 306 305 304 303